User: anonymous   Login
Location: Caltech
(34.1382°N, 118.1253°W)
Time: 00:11:39
(UTC-07:00)
Language:

Cosmos 1980 Rocket - Orbit

View from above orbital plane
View from above orbital plane
View from above satellite
View from above satellite

Ground track
Ground track

The orbit data is extracted from the following two-line orbital elements,

1 19650U 88102B   18142.92687586 -.00000058 +00000-0 -50243-5 0  9991
2 19650 071.0006 020.7135 0013449 017.6693 342.4895 14.15767646523808
Epoch (UTC): 22 May 2018 22:14:42
Eccentricity: 0.0013449
inclination: 71.0006°
perigee height: 830 km
apogee height: 849 km
right ascension of ascending node: 20.7135°
argument of perigee: 17.6693°
revolutions per day: 14.15767646
mean anomaly at epoch: 342.4895°
orbit number at epoch: 52380

The dashed part of the orbit path shows where the satellite is in the earth's shadow,  

DLR